Regional Weather Roundup
Issued by NWS

Home | Current Version | Previous Version | Text Only | Print | Product List | Glossary On
Versions: 1 2 3 4 5 6 7 8 9 10 11 12 13 14 15 16 17 18 19 20 21 22 23 24 25 26 27 28 29 30 31 32 33 34 35 36 37 38 39 40 41 42 43 44 45 46 47 48 49 50
000
ASUS43 KTOP 202108
RWRKS

WEATHER ROUNDUP FOR KANSAS
NATIONAL WEATHER SERVICE GOODLAND KS
400 PM CDT WED SEP 20 2017

NOTE:  "FAIR" INDICATES FEW OR NO CLOUDS BELOW 12,000 FEET WITH NO
SIGNIFICANT WEATHER AND/OR OBSTRUCTIONS TO VISIBILITY.

KSZ001>006-013>018-027>032-041>047-202200-
NORTHWEST KANSAS

CITY           SKY/WX    TMP DP  RH WIND       PRES   REMARKS
GOODLAND       SUNNY     77  30  17 SE12G21   29.91F
HAYS           SUNNY     85  38  18 NE10      29.84F
HILL CITY      SUNNY     82  34  17 E6        29.88F
RUSSELL        SUNNY     87  42  20 NE14G23   29.82F
$$

KSZ061>065-074>080-084>089-202200-
SOUTHWEST KANSAS

CITY           SKY/WX    TMP DP  RH WIND       PRES   REMARKS
DODGE CITY     SUNNY     85  41  21 E8        29.87F
ELKHART          N/A     78  42  27 E8          N/A
GARDEN CITY    SUNNY     84  34  16 E8        29.89F
GREAT BEND     SUNNY     85  51  31 NE9G18    29.84S
LIBERAL        SUNNY     82  43  25 NE7       29.89F
PRATT          SUNNY     85  48  27 E9        29.83F
$$

KSZ066>073-081>083-090>101-202200-
SOUTHEAST KANSAS

CITY           SKY/WX    TMP DP  RH WIND       PRES   REMARKS
CHANUTE        PTSUNNY   91  74  57 S14       29.80S HX 100
COFFEYVILLE    SUNNY     92  73  53 S14       29.78F HX 100
HUTCHINSON     SUNNY     87  58  37 E6        29.80F
MEDICINE LODGE   N/A     86  55  34 E7        29.79F
NEWTON         SUNNY     87  65  47 SW3       29.80F
WICHITA INTL   MOSUNNY   91  66  43 S17       29.78F
WICHITA JABRA  MOSUNNY   88  68  51 S9G20     29.79F
WICHITA MCCONL MOSUNNY   91  66  43 S14       29.79F
WINFIELD       MOSUNNY   90  71  53 S9        29.79F HX  96
$$

KSZ007>012-019>026-033>040-048>060-102>105-202200-
NORTHEAST KANSAS

CITY           SKY/WX    TMP DP  RH WIND       PRES   REMARKS
CONCORDIA      SUNNY     83  56  39 NE9       29.82F
EMPORIA        MOSUNNY   86  69  56 S10       29.79F
LAWRENCE       CLOUDY    88  73  61 S10       29.79S HX  95
MANHATTAN      SUNNY     87  64  46 MISG      29.78F
MARYSVILLE     SUNNY     86  59  39 N7        29.82S
OLATHE IND     PTSUNNY   87  73  62 S10       29.82S
OLATHE EXE     PTSUNNY   86  74  67 SW12      29.81F
SALINA         SUNNY     89  56  32 N9        29.81S
TOPEKA BILLARD MOSUNNY   90  70  51 S12       29.77F HX  95
TOPEKA FORBES  PTSUNNY   91  71  51 S14       29.78F HX  97
$$



USA.gov is the U.S. government's official web portal to all federal, state and local government web resources and services.